Tracking 25734 objects as of 28-May-2022
HD Live streaming from Space Station
objects crossing your sky now

DUCHIFAT-3

Track DUCHIFAT-3 now!
10-day predictions
DUCHIFAT-3 is classified as:


NORAD ID: 44854
Int'l Code: 2019-089C
Perigee: 565.5 km
Apogee: 576.5 km
Inclination: 37.0 °
Period: 95.9 minutes
Semi major axis: 6942 km
RCS: Unknown
Launch date: December 11, 2019
Source: (TBD)
Launch site: SRIHARIKOTA (SRI)

Uplink (MHz): 145.970
Downlink (MHz): 436.400
Beacon (MHz):
Mode: FM/APRS/9k6BPSK
Call sign: 4H4HSL-1
Status: Inactive

aabbcc
Your satellite tracking list
Your tracking list is empty




NASA's NSSDC Master Catalog

Two Line Element Set (TLE):
1 44854U 19089C   22147.91618412  .00005635  00000-0  43897-3 0  9993
2 44854  36.9643 222.0850 0007923  45.7366 123.4152 15.00977322134843
Source of the keplerian elements: AFSPC